GW0605 Weather Reports


Display with metric or nautical units.
time (UTC)temp
F
wind
direction
speed
MPH
gust
MPH
rain 1hr
in
rain 24hr
in
rain mn
in
humidity
%
barometer
mb
20260506233446 45 0 0.0 0.0 0.00 0.00 0.00 84 1013.8
20260506231018 46 355 0.0 2.0 0.00 0.00 0.00 84 1013.8
20260506230058 46 0 0.0 3.0 0.00 0.00 0.00 83 1013.7
20260506230017 46 355 0.0 3.0 0.00 0.00 0.00 84 1013.7
20260506225017 47 355 0.0 2.0 0.00 0.00 0.00 84 1013.7
20260506224556 46 355 0.0 3.0 0.00 0.00 0.00 84 1013.7
20260506224018 47 355 0.0 3.0 0.00 0.00 0.00 84 1013.6
20260506223112 46 355 0.0 3.0 0.00 0.00 0.00 83 1013.6
20260506223017 47 355 0.0 3.0 0.00 0.00 0.00 84 1013.6
20260506222017 47 355 0.0 3.0 0.00 0.00 0.00 84 1013.6
20260506221556 47 0 1.0 3.0 0.00 0.00 0.00 83 1013.6
20260506221017 47 355 0.0 2.0 0.00 0.00 0.00 83 1013.6
20260506220037 48 355 0.0 4.0 0.00 0.00 0.00 83 1013.5
20260506215017 48 355 0.0 3.0 0.00 0.00 0.00 83 1013.4
20260506214550 48 355 0.0 3.0 0.00 0.00 0.00 82 1013.4
20260506214037 48 355 1.0 3.0 0.00 0.00 0.00 82 1013.4
20260506213047 48 0 0.0 4.0 0.00 0.00 0.00 81 1013.4
20260506213017 48 355 1.0 4.0 0.00 0.00 0.00 82 1013.4
20260506212037 49 355 2.0 6.0 0.00 0.00 0.00 82 1013.2
20260506211553 48 355 1.0 5.0 0.00 0.00 0.00 81 1013.2
20260506211017 49 350 2.0 4.0 0.00 0.00 0.00 81 1013.2
20260506210100 49 0 0.0 5.0 0.00 0.00 0.00 81 1013.1
20260506210017 49 350 1.0 4.0 0.00 0.00 0.00 81 1013.2
20260506205018 50 10 2.0 7.0 0.00 0.00 0.00 81 1013.1
20260506204555 49 17 2.0 9.0 0.00 0.00 0.00 80 1013.0
20260506204017 50 15 3.0 9.0 0.00 0.00 0.00 80 1013.1
20260506203138 50 13 2.0 7.0 0.00 0.00 0.00 79 1013.0
20260506203017 50 12 3.0 7.0 0.00 0.00 0.00 79 1013.0
20260506202017 50 1 3.0 6.0 0.00 0.00 0.00 78 1012.9
20260506201556 50 5 2.0 8.0 0.00 0.00 0.00 78 1012.9
20260506201017 50 20 3.0 8.0 0.00 0.00 0.00 77 1012.8
20260506200055 50 26 3.0 9.0 0.00 0.00 0.00 76 1012.7
20260506200017 51 15 3.0 9.0 0.00 0.00 0.00 76 1012.7
20260506195017 51 6 4.0 9.0 0.00 0.00 0.00 75 1012.6
20260506194558 51 19 3.0 9.0 0.00 0.00 0.00 74 1012.5
20260506194017 51 6 3.0 10.0 0.00 0.00 0.00 74 1012.5
20260506193051 51 11 3.0 7.0 0.00 0.00 0.00 72 1012.3
20260506193017 52 10 3.0 7.0 0.00 0.00 0.00 72 1012.4
20260506192017 52 7 3.0 10.0 0.00 0.00 0.00 71 1012.2
20260506191604 51 0 3.0 10.0 0.00 0.00 0.00 70 1012.1
20260506191017 52 6 4.0 11.0 0.00 0.00 0.00 70 1012.0
20260506190054 52 15 4.0 10.0 0.00 0.00 0.00 69 1011.8
20260506190037 53 12 5.0 10.0 0.00 0.00 0.00 69 1011.9
20260506185017 53 19 6.0 13.0 0.00 0.00 0.00 68 1011.7
20260506184601 53 5 5.0 16.0 0.00 0.00 0.00 68 1011.7
20260506184017 54 11 6.0 16.0 0.00 0.00 0.00 68 1011.6
20260506183111 54 336 4.0 12.0 0.00 0.00 0.00 67 1011.5
20260506183017 54 4 5.0 12.0 0.00 0.00 0.00 67 1011.5
20260506182017 55 357 5.0 14.0 0.00 0.00 0.00 65 1011.5
20260506181545 55 329 6.0 14.0 0.00 0.00 0.00 64 1011.4
20260506181017 56 14 6.0 13.0 0.00 0.00 0.00 60 1011.4
20260506180046 55 355 6.0 13.0 0.00 0.00 0.00 59 1011.2
20260506180017 56 14 7.0 13.0 0.00 0.00 0.00 60 1011.2
20260506175017 56 6 5.0 17.0 0.00 0.00 0.00 59 1011.1
20260506174606 56 360 7.0 17.0 0.00 0.00 0.00 58 1011.1
20260506174017 56 14 6.0 14.0 0.00 0.00 0.00 60 1011.0
20260506173056 56 25 6.0 12.0 0.00 0.00 0.00 59 1010.9
20260506173037 56 3 6.0 12.0 0.00 0.00 0.00 59 1010.9
20260506172017 56 16 6.0 15.0 0.00 0.00 0.00 60 1010.9
20260506171547 55 11 7.0 14.0 0.00 0.00 0.00 59 1010.8
20260506171017 56 18 4.0 13.0 0.00 0.00 0.00 60 1010.8
20260506170051 55 15 5.0 13.0 0.00 0.00 0.00 60 1010.7
20260506170037 56 7 6.0 13.0 0.00 0.00 0.00 61 1010.7
20260506165037 56 13 6.0 15.0 0.00 0.00 0.00 60 1010.7
20260506164557 55 10 7.0 17.0 0.00 0.00 0.00 60 1010.6
20260506164037 57 13 8.0 17.0 0.00 0.00 0.00 61 1010.7
20260506163104 57 30 7.0 18.0 0.00 0.00 0.00 61 1010.6
20260506163017 57 2 7.0 18.0 0.00 0.00 0.00 61 1010.6
20260506162037 58 14 6.0 14.0 0.00 0.00 0.00 62 1010.6
20260506161550 57 86 6.0 15.0 0.00 0.00 0.00 62 1010.5
20260506161017 57 12 6.0 15.0 0.00 0.00 0.00 62 1010.5
20260506160053 57 28 8.0 16.0 0.00 0.00 0.00 61 1010.6
20260506160017 57 18 8.0 16.0 0.00 0.00 0.00 62 1010.6
20260506155017 58 10 6.0 14.0 0.00 0.00 0.00 63 1010.6
20260506154555 57 30 7.0 17.0 0.00 0.00 0.00 62 1010.5
20260506154037 58 15 8.0 17.0 0.00 0.00 0.00 62 1010.5
20260506153057 57 33 6.0 16.0 0.00 0.00 0.00 61 1010.4
20260506153017 58 3 7.0 16.0 0.00 0.00 0.00 61 1010.5
20260506152017 58 12 7.0 16.0 0.00 0.00 0.00 62 1010.4
20260506151556 58 40 6.0 17.0 0.00 0.00 0.00 63 1010.4
20260506151017 58 12 8.0 17.0 0.00 0.00 0.00 62 1010.4
20260506150054 58 48 7.0 15.0 0.00 0.00 0.00 63 1010.4
20260506150037 58 9 6.0 14.0 0.00 0.00 0.00 63 1010.4
20260506145017 58 6 7.0 19.0 0.00 0.00 0.00 63 1010.4
20260506144554 57 346 7.0 14.0 0.00 0.00 0.00 62 1010.3
20260506144017 58 8 8.0 15.0 0.00 0.00 0.00 61 1010.4
20260506143050 58 15 5.0 17.0 0.00 0.00 0.00 61 1010.3
20260506143017 58 27 7.0 17.0 0.00 0.00 0.00 62 1010.3
20260506142017 58 13 9.0 15.0 0.00 0.00 0.00 62 1010.3
20260506141549 58 360 5.0 15.0 0.00 0.00 0.00 62 1010.2
20260506141017 58 7 6.0 14.0 0.00 0.00 0.00 61 1010.3
20260506140047 57 33 6.0 16.0 0.00 0.00 0.00 62 1010.2
20260506140017 57 11 6.0 15.0 0.00 0.00 0.00 62 1010.3
20260506135017 57 17 7.0 16.0 0.00 0.00 0.00 62 1010.3
20260506134552 57 15 7.0 15.0 0.00 0.00 0.00 62 1010.2
20260506134017 57 14 9.0 15.0 0.00 0.00 0.00 61 1010.3
20260506133047 58 324 7.0 17.0 0.00 0.00 0.00 60 1010.2
20260506133017 58 12 8.0 17.0 0.00 0.00 0.00 60 1010.2
20260506132017 58 9 6.0 16.0 0.00 0.00 0.00 61 1010.1
20260506131543 57 19 8.0 16.0 0.00 0.00 0.00 60 1010.1
20260506131017 58 8 7.0 16.0 0.00 0.00 0.00 65 1010.1
20260506130054 57 5 5.0 16.0 0.00 0.00 0.00 65 1010.0
20260506130017 57 10 6.0 16.0 0.00 0.00 0.00 65 1010.1
20260506125017 58 3 6.0 15.0 0.00 0.00 0.00 66 1010.1
20260506124555 57 257 6.0 15.0 0.00 0.00 0.00 65 1010.0
20260506124016 58 358 7.0 13.0 0.00 0.00 0.00 65 1010.1
20260506123057 57 20 6.0 12.0 0.00 0.00 0.00 66 1010.0
20260506123050 57 15 5.0 13.0 0.00 0.00 0.00 64 1010.0
20260506122017 57 14 5.0 10.0 0.00 0.00 0.00 64 1010.0
20260506121554 56 24 5.0 14.0 0.00 0.00 0.00 64 1010.0
20260506121037 56 9 6.0 14.0 0.00 0.00 0.00 65 1010.0
20260506120058 56 327 5.0 15.0 0.00 0.00 0.00 66 1009.8
20260506120015 57 8 6.0 15.0 0.00 0.00 0.00 66 1009.9
20260506115017 56 9 6.0 16.0 0.00 0.00 0.00 66 1009.9
20260506114554 56 16 7.0 16.0 0.00 0.00 0.00 65 1009.9
20260506114016 56 6 5.0 14.0 0.00 0.00 0.00 66 1010.0
20260506113053 56 28 3.0 12.0 0.00 0.00 0.00 66 1010.0
20260506113035 57 12 5.0 12.0 0.00 0.00 0.00 65 1010.0
20260506112036 57 19 5.0 12.0 0.00 0.00 0.00 64 1009.9
20260506111553 56 42 4.0 12.0 0.00 0.00 0.00 64 1009.8
20260506111016 57 9 6.0 13.0 0.00 0.00 0.00 63 1009.9
20260506110015 57 11 6.0 11.0 0.00 0.00 0.00 63 1009.9
20260506105036 57 46 5.0 13.0 0.00 0.00 0.00 63 1009.9
20260506104606 56 61 6.0 16.0 0.00 0.00 0.00 63 1009.9
20260506104017 56 15 7.0 16.0 0.00 0.00 0.00 66 1009.9
20260506103103 56 26 5.0 14.0 0.00 0.00 0.00 66 1009.7
20260506103016 56 7 5.0 14.0 0.00 0.00 0.00 67 1009.9
20260506101613 55 360 5.0 16.0 0.00 0.00 0.00 66 1009.7
20260506101517 56 18 7.0 15.0 0.00 0.00 0.00 67 1009.9
20260506101041 56 19 6.0 16.0 0.00 0.00 0.00 67 1009.9
20260506100051 55 18 4.0 12.0 0.00 0.00 0.00 69 1009.7
20260506100017 55 6 5.0 12.0 0.00 0.00 0.00 71 1009.8
20260506095016 55 16 6.0 16.0 0.00 0.00 0.00 72 1009.8
20260506094600 55 31 2.0 11.0 0.00 0.00 0.00 72 1009.7
20260506094017 54 20 3.0 14.0 0.00 0.00 0.00 72 1009.8
20260506093102 54 360 6.0 14.0 0.00 0.00 0.00 71 1009.8
20260506093015 54 18 6.0 14.0 0.00 0.00 0.00 72 1009.8
20260506092017 54 14 6.0 16.0 0.00 0.00 0.00 71 1009.8
20260506091551 54 12 5.0 11.0 0.00 0.00 0.00 71 1009.7
20260506091017 54 17 6.0 14.0 0.00 0.00 0.00 72 1009.6
20260506090109 54 11 5.0 15.0 0.00 0.00 0.00 71 1009.6
20260506090017 55 20 5.0 15.0 0.00 0.00 0.00 71 1009.6
20260506085016 55 10 8.0 17.0 0.00 0.00 0.00 70 1009.6
20260506084603 55 25 7.0 17.0 0.00 0.00 0.00 70 1009.5
20260506084016 55 12 5.0 11.0 0.00 0.00 0.00 73 1009.5
20260506083052 54 33 4.0 16.0 0.00 0.00 0.00 73 1009.5
20260506083016 54 20 4.0 16.0 0.00 0.00 0.00 74 1009.5
20260506082016 54 1 5.0 12.0 0.00 0.00 0.00 74 1009.5
20260506081605 54 344 5.0 12.0 0.00 0.00 0.00 74 1009.5
20260506081016 54 19 4.0 9.0 0.00 0.00 0.00 75 1009.5
20260506073054 54 28 3.0 10.0 0.00 0.00 0.00 77 1009.3
20260506073016 54 25 3.0 10.0 0.00 0.00 0.00 78 1009.3
20260506072036 53 13 4.0 9.0 0.00 0.00 0.00 79 1009.3
20260506071552 53 27 3.0 11.0 0.00 0.00 0.00 78 1009.3
20260506071015 53 23 5.0 11.0 0.00 0.00 0.00 78 1009.3
20260506062036 52 6 4.0 11.0 0.00 0.00 0.00 81 1009.1
20260506061552 52 24 1.0 14.0 0.00 0.00 0.00 81 1009.0
20260506061016 52 19 5.0 14.0 0.00 0.00 0.00 81 1009.0
20260506051036 51 16 4.0 11.0 0.00 0.00 0.00 82 1008.9
20260506050114 50 5 4.0 9.0 0.00 0.00 0.00 81 1009.0
20260506045036 51 1 3.0 9.0 0.00 0.00 0.00 81 1009.1
20260506044552 50 5 2.0 9.0 0.00 0.00 0.00 81 1009.0
20260506044016 51 356 3.0 7.0 0.00 0.00 0.00 81 1009.0
20260506043054 50 344 2.0 6.0 0.00 0.00 0.00 81 1009.1
20260506043016 50 18 3.0 6.0 0.00 0.00 0.00 81 1009.1
20260506042016 50 360 2.0 5.0 0.00 0.00 0.00 82 1009.0
20260506041604 50 355 2.0 9.0 0.00 0.00 0.00 81 1009.0
20260506041016 50 19 2.0 9.0 0.00 0.00 0.00 82 1009.1
20260506040052 50 5 2.0 8.0 0.00 0.00 0.00 82 1009.1
20260506040016 50 11 2.0 8.0 0.00 0.00 0.00 82 1009.1
20260506035016 50 8 4.0 9.0 0.00 0.00 0.00 83 1009.1
20260506034554 50 17 3.0 8.0 0.00 0.00 0.00 82 1009.1
20260506034016 50 357 4.0 8.0 0.00 0.00 0.00 82 1009.1
20260506033047 50 29 3.0 10.0 0.00 0.00 0.00 82 1009.1
20260506033016 50 4 3.0 9.0 0.00 0.00 0.00 82 1009.2
20260506032015 50 4 4.0 10.0 0.00 0.00 0.00 82 1009.2
20260506031548 50 13 2.0 8.0 0.00 0.00 0.00 82 1009.2
20260506031016 50 19 4.0 10.0 0.00 0.00 0.00 82 1009.3
20260506030057 50 17 2.0 8.0 0.00 0.00 0.00 82 1009.4
20260506030016 50 12 2.0 8.0 0.00 0.00 0.00 82 1009.4
20260506025035 50 3 2.0 8.0 0.00 0.00 0.00 82 1009.4
20260506024603 50 342 3.0 9.0 0.00 0.00 0.00 81 1009.4
20260506024016 50 7 4.0 9.0 0.00 0.00 0.00 82 1009.4
20260506023108 50 26 3.0 11.0 0.00 0.00 0.00 82 1009.4
20260506023016 50 4 3.0 11.0 0.00 0.00 0.00 82 1009.5
20260506022016 50 17 4.0 8.0 0.00 0.00 0.00 82 1009.5
20260506021548 50 23 3.0 7.0 0.00 0.00 0.00 82 1009.5
20260506021016 50 15 3.0 7.0 0.00 0.00 0.00 83 1009.6
20260506020055 49 15 2.0 9.0 0.00 0.00 0.00 82 1009.6
20260506020016 50 19 2.0 9.0 0.00 0.00 0.00 83 1009.6
20260506015016 50 19 1.0 5.0 0.00 0.00 0.00 82 1009.7
20260506014553 49 18 0.0 4.0 0.00 0.00 0.00 82 1009.7
20260506014016 49 19 1.0 7.0 0.00 0.00 0.00 83 1009.7
20260506013056 49 0 1.0 4.0 0.00 0.00 0.00 82 1009.7
20260506013015 49 22 1.0 3.0 0.00 0.00 0.00 83 1009.8
20260506012016 49 22 1.0 4.0 0.00 0.00 0.00 83 1009.8
20260506011550 48 0 0.0 5.0 0.00 0.00 0.00 82 1009.7
20260506011016 49 24 1.0 5.0 0.00 0.00 0.00 83 1009.8
20260506010050 48 24 1.0 4.0 0.00 0.00 0.00 82 1009.7
20260506010016 48 25 2.0 4.0 0.00 0.00 0.00 83 1009.8
20260506005016 48 25 1.0 3.0 0.00 0.00 0.00 82 1009.9
20260506004546 48 0 0.0 3.0 0.00 0.00 0.00 81 1009.9
20260506004016 48 25 0.0 3.0 0.00 0.00 0.00 82 1010.1
20260506003054 48 0 0.0 3.0 0.00 0.00 0.00 81 1010.1
20260506003016 48 25 0.0 3.0 0.00 0.00 0.00 82 1010.2
20260506002016 48 25 0.0 3.0 0.00 0.00 0.00 82 1010.2
20260506001557 48 0 0.0 5.0 0.00 0.00 0.00 81 1010.1
20260506001016 48 25 1.0 5.0 0.00 0.00 0.00 82 1010.3
20260506000100 48 25 0.0 4.0 0.00 0.00 0.00 81 1010.3
20260506000016 48 25 1.0 4.0 0.00 0.00 0.00 82 1010.4
20260505235016 48 24 1.0 5.0 0.00 0.00 0.00 82 1010.5
20260505234552 48 24 1.0 5.0 0.00 0.00 0.00 82 1010.3
20260505234036 48 27 1.0 3.0 0.00 0.00 0.00 82 1010.6